Location: Unspecified
(42.3650°N, 71.1030°W)
Time: 12:10:39
(UTC+00:00)

Hubble Space Telescope - Visible Passes

Search period start: 23 May 2024 00:00
Search period end: 02 June 2024 00:00
Orbit: 511 x 515 km, 28.5° (Epoch: 22 May)

Date Brightness Start Highest point End Pass type
(mag) Time Alt. Az. Time Alt. Az. Time Alt. Az.
29 May 2.9 01:33:02 10° SSW 01:33:51 11° S 01:33:51 11° S visible
30 May 2.8 01:14:06 10° SSW 01:15:12 11° S 01:16:12 10° SSE visible
31 May 2.9 00:55:11 10° SSW 00:56:17 11° S 00:57:23 10° SSE visible
